KINEIS-4C

Last updated on Thu Oct 23 2025 00:02:50 GMT+0000 (Coordinated Universal Time)

1 63301U 25056B 25295.46870848 .00003643 00000+0 58130-3 0 9994 2 63301 97.9979 59.1144 0001934 59.4135 300.7263 14.72507049 32154
UTC large
Height (km)
Speed (km/s)
/
Latitude / Longitude
Inclination (degrees)
Orbital Period (minutes)
Azimuth
Elevation
Range (km)
Doppler Factor

Next 0 passes for location: London (51.5072 / 0.1276)

Sorry there are no passes over London.